When you browse on this site, cookies collect data to enhance your experience and personalize the content and advertising you see.
Visit our Privacy Policy to learn more. By continuing to use the site, you agree to this use of cookies and data.
  • In Hungary
  • List of Countries
  • For 7 days
  • Water Temperature
  • Satellite Maps
  • Weather Map
  • News
  • Weather Widgets
  • user-avatar
    Login

    Hourly Weather Akhaltsikhe

    Today, 16 January, Wednesday

    Time Temperature Precipitation Wind Pressure Humidity
    00:00 -1°C° 0 mm 3 mps 641 mmHg 79%
    01:00 -1°C° 0 mm 3 mps 641 mmHg 80%
    02:00 -2°C° 0 mm 3 mps 641 mmHg 80%
    03:00 -2°C° 0 mm 3 mps 641 mmHg 81%
    04:00 -2°C° 0 mm 3 mps 641 mmHg 81%
    05:00 -2°C° 0 mm 3 mps 641 mmHg 81%
    06:00 -2°C° 0 mm 3 mps 640 mmHg 82%
    07:00 -2°C° 0 mm 3 mps 641 mmHg 81%
    08:00 -1°C° 0 mm 3 mps 641 mmHg 81%
    09:00 -1°C° 0 mm 3 mps 641 mmHg 81%
    10:00 0°C° 0 mm 3 mps 641 mmHg 82%
    11:00 +1°C° 0 mm 3 mps 641 mmHg 83%
    12:00 +2°C° 0 mm 3 mps 641 mmHg 84%
    13:00 +3°C° 0.1 mm 2 mps 641 mmHg 85%
    14:00 +3°C° 0.1 mm 2 mps 641 mmHg 85%
    15:00 +3°C° 0.1 mm 2 mps 641 mmHg 86%
    16:00 +3°C° 0.2 mm 1 mps 641 mmHg 86%
    17:00 +2°C° 0.2 mm 1 mps 641 mmHg 86%
    18:00 +1°C° 0.2 mm 1 mps 641 mmHg 86%
    19:00 0°C° 0.4 mm 1 mps 641 mmHg 87%
    20:00 0°C° 0.4 mm 1 mps 641 mmHg 89%
    21:00 -1°C° 0.4 mm 1 mps 641 mmHg 90%
    22:00 -1°C° 0.6 mm 1 mps 640 mmHg 91%
    23:00 -1°C° 0.6 mm 1 mps 640 mmHg 92%

    Tomorrow, 17 January, Thursday

    Time Temperature Precipitation Wind Pressure Humidity
    00:00 -1°C° 0.6 mm 1 mps 640 mmHg 93%
    01:00 -2°C° 0.9 mm 1 mps 640 mmHg 94%
    02:00 -2°C° 0.9 mm 1 mps 640 mmHg 95%
    03:00 -2°C° 0.9 mm 1 mps 641 mmHg 97%
    04:00 -4°C° 0.7 mm 2 mps 641 mmHg 96%
    05:00 -5°C° 0.7 mm 2 mps 641 mmHg 96%
    06:00 -5°C° 0.7 mm 2 mps 641 mmHg 96%
    07:00 -5°C° 0.3 mm 2 mps 641 mmHg 96%
    08:00 -6°C° 0.3 mm 2 mps 642 mmHg 95%
    09:00 -6°C° 0.3 mm 2 mps 642 mmHg 95%
    10:00 -5°C° 0.3 mm 2 mps 642 mmHg 93%
    11:00 -5°C° 0.3 mm 2 mps 642 mmHg 92%
    12:00 -5°C° 0.3 mm 2 mps 643 mmHg 90%
    13:00 -5°C° 0.2 mm 2 mps 643 mmHg 89%
    14:00 -5°C° 0.2 mm 2 mps 643 mmHg 88%
    15:00 -5°C° 0.2 mm 2 mps 644 mmHg 88%
    16:00 -5°C° 0.1 mm 2 mps 644 mmHg 90%
    17:00 -6°C° 0.1 mm 2 mps 645 mmHg 92%
    18:00 -4°C° 0.1 mm 1 mps 646 mmHg 94%
    19:00 -4°C° 0.2 mm 1 mps 646 mmHg 94%
    20:00 -6°C° 0.2 mm 1 mps 647 mmHg 94%
    21:00 -6°C° 0.2 mm 1 mps 647 mmHg 94%
    22:00 -6°C° 0.1 mm 1 mps 647 mmHg 94%
    23:00 -6°C° 0.1 mm 1 mps 648 mmHg 94%

    Day after tomorrow, 18 January, Friday

    Time Temperature Precipitation Wind Pressure Humidity
    00:00 -6°C° 0.1 mm 1 mps 648 mmHg 93%
    01:00 -6°C° 0.1 mm 1 mps 648 mmHg 93%
    02:00 -7°C° 0.1 mm 0 mps 648 mmHg 93%
    03:00 -7°C° 0.1 mm 0 mps 649 mmHg 92%
    04:00 -7°C° 0 mm 0 mps 649 mmHg 92%
    05:00 -8°C° 0 mm 1 mps 649 mmHg 91%
    06:00 -8°C° 0 mm 1 mps 649 mmHg 90%
    07:00 -7°C° 0 mm 1 mps 649 mmHg 89%
    08:00 -7°C° 0 mm 1 mps 649 mmHg 88%
    09:00 -6°C° 0 mm 1 mps 650 mmHg 87%
    10:00 -4°C° 0 mm 1 mps 650 mmHg 85%
    11:00 -2°C° 0 mm 1 mps 650 mmHg 83%
    12:00 -2°C° 0 mm 0 mps 650 mmHg 81%
    13:00 -2°C° 0 mm 0 mps 649 mmHg 81%
    14:00 -1°C° 0 mm 0 mps 649 mmHg 81%
    15:00 -1°C° 0 mm 0 mps 649 mmHg 81%
    16:00 -2°C° 0 mm 1 mps 649 mmHg 82%
    17:00 -4°C° 0 mm 1 mps 649 mmHg 84%
    18:00 -7°C° 0 mm 1 mps 648 mmHg 85%
    19:00 -7°C° 0 mm 1 mps 648 mmHg 83%
    20:00 -9°C° 0 mm 2 mps 649 mmHg 81%
    21:00 -9°C° 0 mm 2 mps 649 mmHg 79%
    22:00 -9°C° 0 mm 2 mps 649 mmHg 77%
    23:00 -10°C° 0 mm 2 mps 649 mmHg 74%

    19 January, Saturday

    Time Temperature Precipitation Wind Pressure Humidity
    00:00 -10°C° 0 mm 2 mps 648 mmHg 72%
    01:00 -10°C° 0 mm 2 mps 648 mmHg 70%
    02:00 -10°C° 0 mm 2 mps 648 mmHg 68%
    03:00 -10°C° 0 mm 2 mps 648 mmHg 66%
    04:00 -10°C° 0 mm 2 mps 648 mmHg 65%
    05:00 -10°C° 0 mm 2 mps 648 mmHg 64%
    06:00 -10°C° 0 mm 2 mps 648 mmHg 63%
    07:00 -10°C° 0 mm 2 mps 648 mmHg 64%
    08:00 -9°C° 0 mm 2 mps 648 mmHg 65%
    09:00 -8°C° 0 mm 2 mps 649 mmHg 66%
    10:00 -5°C° 0 mm 2 mps 649 mmHg 66%
    11:00 -1°C° 0 mm 1 mps 649 mmHg 66%
    12:00 +1°C° 0 mm 1 mps 650 mmHg 65%
    13:00 +1°C° 0 mm 1 mps 649 mmHg 67%
    14:00 +1°C° 0 mm 1 mps 649 mmHg 69%
    15:00 +1°C° 0 mm 1 mps 649 mmHg 71%
    16:00 0°C° 0 mm 1 mps 649 mmHg 72%
    17:00 -2°C° 0 mm 1 mps 649 mmHg 74%
    18:00 -4°C° 0 mm 1 mps 648 mmHg 76%
    19:00 -4°C° 0 mm 1 mps 648 mmHg 74%
    20:00 -6°C° 0 mm 1 mps 649 mmHg 73%
    21:00 -7°C° 0 mm 2 mps 649 mmHg 71%
    22:00 -7°C° 0 mm 2 mps 649 mmHg 69%
    23:00 -7°C° 0 mm 2 mps 649 mmHg 67%

    20 January, Sunday

    Time Temperature Precipitation Wind Pressure Humidity
    00:00 -7°C° 0 mm 2 mps 649 mmHg 65%
    01:00 -7°C° 0 mm 2 mps 649 mmHg 64%
    02:00 -7°C° 0 mm 2 mps 649 mmHg 63%
    03:00 -7°C° 0 mm 2 mps 649 mmHg 62%
    04:00 -7°C° 0 mm 2 mps 649 mmHg 62%
    05:00 -8°C° 0 mm 2 mps 649 mmHg 61%
    06:00 -8°C° 0 mm 2 mps 649 mmHg 60%
    07:00 -7°C° 0 mm 2 mps 649 mmHg 61%
    08:00 -7°C° 0 mm 2 mps 649 mmHg 63%
    09:00 -7°C° 0 mm 2 mps 650 mmHg 64%
    10:00 -3°C° 0 mm 1 mps 650 mmHg 64%
    11:00 -1°C° 0 mm 1 mps 650 mmHg 63%
    12:00 +1°C° 0 mm 1 mps 650 mmHg 63%
    13:00 +1°C° 0 mm 1 mps 650 mmHg 65%
    14:00 0°C° 0 mm 0 mps 649 mmHg 66%
    15:00 0°C° 0 mm 0 mps 649 mmHg 68%
    16:00 -1°C° 0 mm 1 mps 649 mmHg 69%
    17:00 -3°C° 0 mm 1 mps 649 mmHg 69%
    18:00 -4°C° 0 mm 1 mps 648 mmHg 69%
    19:00 -7°C° 0 mm 2 mps 648 mmHg 68%
    20:00 -8°C° 0 mm 2 mps 648 mmHg 66%
    21:00 -8°C° 0 mm 2 mps 648 mmHg 65%
    22:00 -9°C° 0 mm 2 mps 648 mmHg 63%
    23:00 -9°C° 0 mm 2 mps 648 mmHg 62%

    21 January, Monday

    Time Temperature Precipitation Wind Pressure Humidity
    00:00 -9°C° 0 mm 2 mps 648 mmHg 60%
    01:00 -10°C° 0 mm 2 mps 648 mmHg 59%
    02:00 -10°C° 0 mm 2 mps 648 mmHg 59%
    03:00 -10°C° 0 mm 2 mps 648 mmHg 58%
    04:00 -10°C° 0 mm 2 mps 647 mmHg 59%
    05:00 -10°C° 0 mm 2 mps 647 mmHg 59%
    06:00 -10°C° 0 mm 2 mps 647 mmHg 59%
    07:00 -9°C° 0 mm 2 mps 648 mmHg 61%
    08:00 -8°C° 0 mm 2 mps 648 mmHg 63%
    09:00 -7°C° 0 mm 2 mps 648 mmHg 66%
    10:00 -5°C° 0 mm 2 mps 648 mmHg 66%
    11:00 -3°C° 0 mm 2 mps 648 mmHg 66%
    12:00 +1°C° 0 mm 1 mps 648 mmHg 66%
    13:00 +1°C° 0 mm 1 mps 648 mmHg 68%
    14:00 +1°C° 0 mm 1 mps 648 mmHg 70%
    15:00 +1°C° 0 mm 1 mps 648 mmHg 71%
    16:00 0°C° 0 mm 1 mps 648 mmHg 74%
    17:00 -2°C° 0 mm 1 mps 648 mmHg 77%
    18:00 -4°C° 0 mm 1 mps 647 mmHg 79%
    19:00 -6°C° 0 mm 2 mps 647 mmHg 80%
    20:00 -6°C° 0 mm 2 mps 647 mmHg 80%
    21:00 -7°C° 0 mm 2 mps 647 mmHg 80%
    22:00 -6°C° 0.1 mm 2 mps 647 mmHg 82%
    23:00 -6°C° 0.1 mm 2 mps 648 mmHg 84%
    Show more